Simultaneous Nadir Overpasses (SNOs) Predictions

Prediction of SNOs between LANDSAT-8 and NOAA-19 Satellite Orbit:

Table of predicted SNOs for the next 14.0 days since TLE Epoch: 7/19/2014
Index Date (LANDSAT-8) Time (LANDSAT-8) Lat,Lon (LANDSAT-8) SZA (LANDSAT-8 ) Date (NOAA-19) Time (NOAA-19) Lat,Lon (NOAA-19) SZA (NOAA-19 ) Distance(km) Time Diff (sec)
1 07/20/2014 14:04:05 72.11, -31.53 51.43 07/20/2014 14:03:15 72.08, -31.53 51.40 3.41 50
2 07/20/2014 14:53:35 -72.00, 135.90 128.68 07/20/2014 14:54:18 -72.00, 135.87 128.68 1.24 43
3 07/22/2014 18:48:20 72.24,-102.37 51.98 07/22/2014 18:47:08 72.30,-102.90 52.06 19.13 72
4 07/22/2014 19:37:52 -72.02, 64.87 128.23 07/22/2014 19:38:08 -72.04, 64.85 128.21 2.75 16
5 07/25/2014 00:22:09 -72.04, -6.17 127.76 07/25/2014 00:21:57 -72.04, -6.08 127.75 3.08 12
6 07/25/2014 01:11:39 71.78, 161.03 52.00 07/25/2014 01:12:50 71.78, 161.68 51.99 22.72 71
7 07/27/2014 05:06:25 -72.10, -77.12 127.21 07/27/2014 05:05:47 -72.10, -77.11 127.21 0.74 38
8 07/27/2014 05:55:52 72.00, 90.34 52.70 07/27/2014 05:56:43 72.01, 90.33 52.71 0.80 51
9 07/29/2014 09:50:41 -72.16,-148.09 126.65 07/29/2014 09:49:37 -72.15,-148.15 126.65 2.08 64
10 07/29/2014 10:40:08 72.06, 19.37 53.26 07/29/2014 10:40:32 72.02, 19.36 53.23 3.62 24
11 07/31/2014 14:34:47 -72.74, 141.91 125.54 07/31/2014 14:33:39 -72.81, 139.55 125.43 78.23 68
12 07/31/2014 15:24:24 72.10, -51.61 53.84 07/31/2014 15:24:22 72.09, -51.70 53.84 3.38 2
